This is the latest recevied weather packets stored in our database for station/object KC1BRV. If no packets are shown the sender has not sent any weather packets the latest 10 day(s).
| Time | Temp. | Humidity | Pressure | Rain* | Wind** | Luminosity | Snow |
|---|---|---|---|---|---|---|---|
| 1777686841 | 10.56° C | 60% | 1013.3 hPa | 0 mm | - | 0 W/m² | - |
| 1777686538 | 10.56° C | 59% | 1013 hPa | 0 mm | - | 0 W/m² | - |
| 1777686235 | 10.56° C | 57% | 1012.9 hPa | 0 mm | - | 0 W/m² | - |
| 1777685931 | 10.56° C | 57% | 1012.9 hPa | 0 mm | - | 0 W/m² | - |
| 1777685627 | 11.11° C | 56% | 1012.9 hPa | 0 mm | - | 0 W/m² | - |
| 1777685324 | 11.11° C | 54% | 1013.1 hPa | 0 mm | - | 0 W/m² | - |
| 1777685022 | 11.11° C | 54% | 1012.9 hPa | 0 mm | - | 0 W/m² | - |
| 1777684719 | 11.67° C | 53% | 1012.9 hPa | 0 mm | - | 0 W/m² | - |
| 1777684415 | 11.67° C | 52% | 1012.7 hPa | 0 mm | - | 0 W/m² | - |
| 1777684112 | 11.11° C | 52% | 1012.8 hPa | 0 mm | - | 0 W/m² | - |
| 1777683809 | 11.11° C | 51% | 1012.8 hPa | 0 mm | - | 0 W/m² | - |
| 1777683505 | 11.11° C | 51% | 1012.6 hPa | 0 mm | - | 0 W/m² | - |
| 1777683204 | 11.11° C | 52% | 1012.5 hPa | 0 mm | - | 0 W/m² | - |
| 1777682901 | 11.67° C | 53% | 1012.4 hPa | 0 mm | - | 0 W/m² | - |
| 1777682596 | 11.67° C | 52% | 1012.2 hPa | 0 mm | - | 0 W/m² | - |
| 1777682295 | 11.67° C | 50% | 1012.2 hPa | 0 mm | - | 0 W/m² | - |
| 1777681991 | 11.67° C | 50% | 1012.1 hPa | 0 mm | - | 0 W/m² | - |
| 1777681687 | 12.22° C | 49% | 1012.1 hPa | 0 mm | - | 0 W/m² | - |
| 1777681385 | 12.22° C | 49% | 1011.9 hPa | 0 mm | - | 0 W/m² | - |
| 1777681082 | 12.22° C | 48% | 1011.6 hPa | 0 mm | - | 0 W/m² | - |
| 1777680780 | 12.78° C | 47% | 1011.6 hPa | 0 mm | - | 0 W/m² | - |
| 1777680477 | 12.78° C | 46% | 1011.6 hPa | 0 mm | - | 0 W/m² | - |
| 1777680176 | 12.78° C | 45% | 1011.6 hPa | 0 mm | - | 0 W/m² | - |
| 1777679875 | 12.78° C | 42% | 1011.5 hPa | 0 mm | - | 0 W/m² | - |
| 1777679572 | 13.33° C | 41% | 1011.4 hPa | 0 mm | - | 1 W/m² | - |
* Rain latest hour (hover to see other rain measurements)
** Current wind speed in m/s (hover to see current wind gust speed)